カタログに戻る

ASTRA 3B

運用中通信GEO
NORAD 36581·PAYLOAD·🇱🇺 Luxembourg

打ち上げ May 21, 2010 から Guiana Space Centre

Loading…

TLE

最新Source: CelesTrak SupGP

元期: Sep 14, 2026, 23:30 UTC

1 36581C 10021A   26257.97916667  .00000227  00000+0  00000+0 0  2576
2 36581   1.6951  82.3164 0004066  58.1413 229.4761  1.00271958    14

AllMySatでASTRA 3Bをリアルタイム追跡

Download on the App Store